Showing default

QIANFAN-93, 66035

Orbit data source: Space-Track

QIANFAN-93, 66035 is a Chinese payload satellite in LEO that was launched on Fri, 17 Oct 2025 UTC via a CHANG ZHENG 6A launch vehicle from the Taiyaun Space Center, China (TSC). Payload-class satellites include a variety of spacecraft equipped with specific instruments for various scientific and technological missions. These include communications satellites like Starlink; space stations such as the ISS; scientific satellites like the Hubble; Earth observation satellites from companies like Planet Labs, Umbra, and HawkEye 360; GPS; miniature CubeSats for education and research; and military/defense satellites.

Loading next visibility...
Identifier
66035, 2025-233C
Orbit
LEO
Country
Flag of CNCN / PRC
Related business
Manufacturer
SECM
Mission
Operational Commercial Communications
Bus & Motor
QIANFAN, Unknown motor
Mass
267 kg wet, ~267 kg dry
Launch date (UTC)
2025-10-17 (7 months ago)
Launch vehicle
CHANG ZHENG 6A
Launch site
Taiyaun Space Center, China (TSC)
Object type
Payload
Rocket body
Debris
Shape & HBR
Box + 1 Pan, 14.5 m
Radar Cross Section
13.200 m²

Expand to show TLE details & history
Last TLE update: 9 hours ago

TLE from 9 hours ago
0 QIANFAN-93
1 66035U 25233C   26130.15547578  .00000128  00000-0  17945-3 0  9999
2 66035  89.0030  47.0488 0002395  71.1014 289.0396 13.51003917 28047
Epoch: 2026-05-10T03:43Z
TLE epoch observation values (Epoch: 2026-05-10T03:43:53.107Z)
Latitude
-0.00008°
Longitude
123.11491°
Altitude
1,070.939 km
Speed
7.317 km/s
True Right ascension
03h 08m 11s
True Declination
0° 00' 00"
Sunlit
Object was in daylight at epoch
Visualization orbit readout
Latitude
Unknown
Longitude
Unknown
Altitude
Unknown
Speed
Unknown
Apparent Right ascension
Unknown
Apparent Declination
Unknown
Sunlit
N/A
Visualization observer readout
Local Sidereal Time
20:32:20
Azimuth
Unknown
Elevation
Unknown
Doppler factor
Unknown
Orbital elements
Apogee altitude
1,067.401 km
Perigee altitude
1,063.835 km
Semi-major axis
7,443.755 km
Eccentricity
0.00024
Inclination
89.003°
RAAN
47.0488°
Arg. of periapsis
71.1014°
True anomaly
289.01365°
Mean anomaly
289.0396°
Eccentric anomaly
289.02663°
Mean motion
3.37952 °/min
Orbital period
106.52 mins
BSTAR
0.00017945
Loading maneuver chart data...
Computing Atmospheric mass density...
Loading historical data...
Loading historical data...
Loading historical data...
Loading historical data...
Loading historical data...
Loading historical data...
Loading historical data...

Documentation

Showing up to 5 results
|